Year,Month,Day,Hour,Minute,Value (Times are PST for temperature in C)
2011,04,20,00,00,3.10
2011,04,20,00,01,3.10
2011,04,20,00,02,3.10
2011,04,20,00,03,3.10
2011,04,20,00,04,3.10
2011,04,20,00,05,3.10
2011,04,20,00,06,3.10
2011,04,20,00,07,3.10
2011,04,20,00,08,3.10
2011,04,20,00,09,3.10
2011,04,20,00,10,3.10
2011,04,20,00,11,3.10
2011,04,20,00,12,3.10
2011,04,20,00,13,3.00
2011,04,20,00,14,2.90
2011,04,20,00,15,2.90
2011,04,20,00,16,2.90
2011,04,20,00,17,2.90
2011,04,20,00,18,2.90
2011,04,20,00,19,2.90
2011,04,20,00,20,2.90
2011,04,20,00,21,2.90
2011,04,20,00,22,2.90
2011,04,20,00,23,2.90
2011,04,20,00,24,2.90
2011,04,20,00,25,2.80
2011,04,20,00,26,2.80
2011,04,20,00,27,2.80
2011,04,20,00,28,2.80
2011,04,20,00,29,2.80
2011,04,20,00,30,2.80
2011,04,20,00,31,2.80
2011,04,20,00,32,2.80
2011,04,20,00,33,2.80
2011,04,20,00,34,2.70
2011,04,20,00,35,2.70
2011,04,20,00,36,2.70
2011,04,20,00,37,2.70
2011,04,20,00,38,2.70
2011,04,20,00,39,2.70
2011,04,20,00,40,2.70
2011,04,20,00,41,2.70
2011,04,20,00,42,2.70
2011,04,20,00,43,2.70
2011,04,20,00,44,2.70
2011,04,20,00,45,2.70
2011,04,20,00,46,2.70
2011,04,20,00,47,2.70
2011,04,20,00,48,2.70
2011,04,20,00,49,2.70
2011,04,20,00,50,2.70
2011,04,20,00,51,2.70
2011,04,20,00,52,2.70
2011,04,20,00,53,2.60
2011,04,20,00,54,2.60
2011,04,20,00,55,2.60
2011,04,20,00,56,2.60
2011,04,20,00,57,2.60
2011,04,20,00,58,2.60
2011,04,20,00,59,2.60
2011,04,20,01,00,2.60
2011,04,20,01,01,2.60
2011,04,20,01,02,2.60
2011,04,20,01,03,2.60
2011,04,20,01,04,2.60
2011,04,20,01,05,2.60
2011,04,20,01,06,2.50
2011,04,20,01,07,2.50
2011,04,20,01,08,2.50
2011,04,20,01,09,2.50
2011,04,20,01,10,2.50
2011,04,20,01,11,2.50
2011,04,20,01,12,2.50
2011,04,20,01,13,2.50
2011,04,20,01,14,2.50
2011,04,20,01,15,2.50
2011,04,20,01,16,2.40
2011,04,20,01,17,2.40
2011,04,20,01,18,2.40
2011,04,20,01,19,2.40
2011,04,20,01,20,2.40
2011,04,20,01,21,2.40
2011,04,20,01,22,2.40
2011,04,20,01,23,2.30
2011,04,20,01,24,2.30
2011,04,20,01,25,2.30
2011,04,20,01,26,2.30
2011,04,20,01,27,2.30
2011,04,20,01,28,2.30
2011,04,20,01,29,2.30
2011,04,20,01,30,2.30
2011,04,20,01,31,2.30
2011,04,20,01,32,2.30
2011,04,20,01,33,2.20
2011,04,20,01,34,2.20
2011,04,20,01,35,2.20
2011,04,20,01,36,2.20
2011,04,20,01,37,2.20
2011,04,20,01,38,2.20
2011,04,20,01,39,2.20
2011,04,20,01,40,2.20
2011,04,20,01,41,2.20
2011,04,20,01,42,2.20
2011,04,20,01,43,2.20
2011,04,20,01,44,2.20
2011,04,20,01,45,2.20
2011,04,20,01,46,2.20
2011,04,20,01,47,2.20
2011,04,20,01,48,2.20
2011,04,20,01,49,2.20
2011,04,20,01,50,2.20
2011,04,20,01,51,2.20
2011,04,20,01,52,2.20
2011,04,20,01,53,2.20
2011,04,20,01,54,2.20
2011,04,20,01,55,2.20
2011,04,20,01,56,2.20
2011,04,20,01,57,2.10
2011,04,20,01,58,2.10
2011,04,20,01,59,2.10
2011,04,20,02,00,2.10
2011,04,20,02,01,2.10
2011,04,20,02,02,2.10
2011,04,20,02,03,2.00
2011,04,20,02,04,2.00
2011,04,20,02,05,2.00
2011,04,20,02,06,2.00
2011,04,20,02,07,2.00
2011,04,20,02,08,2.00
2011,04,20,02,09,1.90
2011,04,20,02,10,1.90
2011,04,20,02,11,1.90
2011,04,20,02,12,1.90
2011,04,20,02,13,1.90
2011,04,20,02,14,1.90
2011,04,20,02,15,1.90
2011,04,20,02,16,1.90
2011,04,20,02,17,1.90
2011,04,20,02,18,1.90
2011,04,20,02,19,1.90
2011,04,20,02,20,1.80
2011,04,20,02,21,1.80
2011,04,20,02,22,1.80
2011,04,20,02,23,1.80
2011,04,20,02,24,1.80
2011,04,20,02,25,1.80
2011,04,20,02,26,1.80
2011,04,20,02,27,1.80
2011,04,20,02,28,1.80
2011,04,20,02,29,1.80
2011,04,20,02,30,1.80
2011,04,20,02,31,1.80
2011,04,20,02,32,1.80
2011,04,20,02,33,1.80
2011,04,20,02,34,1.80
2011,04,20,02,35,1.80
2011,04,20,02,36,1.80
2011,04,20,02,37,1.80
2011,04,20,02,38,1.80
2011,04,20,02,39,1.80
2011,04,20,02,40,1.80
2011,04,20,02,41,1.80
2011,04,20,02,42,1.80
2011,04,20,02,43,1.80
2011,04,20,02,44,1.80
2011,04,20,02,45,1.80
2011,04,20,02,46,1.80
2011,04,20,02,47,1.80
2011,04,20,02,48,1.80
2011,04,20,02,49,1.80
2011,04,20,02,50,1.80
2011,04,20,02,51,1.80
2011,04,20,02,52,1.80
2011,04,20,02,53,1.80
2011,04,20,02,54,1.80
2011,04,20,02,55,1.80
2011,04,20,02,56,1.80
2011,04,20,02,57,1.80
2011,04,20,02,58,1.80
2011,04,20,02,59,1.80
2011,04,20,03,00,1.80
2011,04,20,03,01,1.80
2011,04,20,03,02,1.80
2011,04,20,03,03,1.80
2011,04,20,03,04,1.70
2011,04,20,03,05,1.70
2011,04,20,03,06,1.70
2011,04,20,03,07,1.70
2011,04,20,03,08,1.70
2011,04,20,03,09,1.70
2011,04,20,03,10,1.70
2011,04,20,03,11,1.60
2011,04,20,03,12,1.60
2011,04,20,03,13,1.60
2011,04,20,03,14,1.60
2011,04,20,03,15,1.60
2011,04,20,03,16,1.60
2011,04,20,03,17,1.60
2011,04,20,03,18,1.60
2011,04,20,03,19,1.60
2011,04,20,03,20,1.60
2011,04,20,03,21,1.50
2011,04,20,03,22,1.50
2011,04,20,03,23,1.50
2011,04,20,03,24,1.50
2011,04,20,03,25,1.50
2011,04,20,03,26,1.50
2011,04,20,03,27,1.50
2011,04,20,03,28,1.50
2011,04,20,03,29,1.50
2011,04,20,03,30,1.50
2011,04,20,03,31,1.50
2011,04,20,03,32,1.50
2011,04,20,03,33,1.60
2011,04,20,03,34,1.60
2011,04,20,03,35,1.60
2011,04,20,03,36,1.60
2011,04,20,03,37,1.60
2011,04,20,03,38,1.60
2011,04,20,03,39,1.60
2011,04,20,03,40,1.60
2011,04,20,03,41,1.60
2011,04,20,03,42,1.70
2011,04,20,03,43,1.70
2011,04,20,03,44,1.70
2011,04,20,03,45,1.70
2011,04,20,03,46,1.70
2011,04,20,03,47,1.70
2011,04,20,03,48,1.70
2011,04,20,03,49,1.80
2011,04,20,03,50,1.80
2011,04,20,03,51,1.80
2011,04,20,03,52,1.80
2011,04,20,03,53,1.80
2011,04,20,03,54,1.80
2011,04,20,03,55,1.80
2011,04,20,03,56,1.80
2011,04,20,03,57,1.80
2011,04,20,03,58,1.80
2011,04,20,03,59,1.80
2011,04,20,04,00,1.80
2011,04,20,04,01,1.80
2011,04,20,04,02,1.80
2011,04,20,04,03,1.80
2011,04,20,04,04,1.80
2011,04,20,04,05,1.80
2011,04,20,04,06,1.80
2011,04,20,04,07,1.80
2011,04,20,04,08,1.80
2011,04,20,04,09,1.80
2011,04,20,04,10,1.80
2011,04,20,04,11,1.80
2011,04,20,04,12,1.80
2011,04,20,04,13,1.80
2011,04,20,04,14,1.80
2011,04,20,04,15,1.80
2011,04,20,04,16,1.80
2011,04,20,04,17,1.80
2011,04,20,04,18,1.80
2011,04,20,04,19,1.80
2011,04,20,04,20,1.80
2011,04,20,04,21,1.80
2011,04,20,04,22,1.80
2011,04,20,04,23,1.80
2011,04,20,04,24,1.80
2011,04,20,04,25,1.80
2011,04,20,04,26,1.80
2011,04,20,04,27,1.80
2011,04,20,04,28,1.80
2011,04,20,04,29,1.80
2011,04,20,04,30,1.80
2011,04,20,04,31,1.80
2011,04,20,04,32,1.80
2011,04,20,04,33,1.80
2011,04,20,04,34,1.80
2011,04,20,04,35,1.80
2011,04,20,04,36,1.80
2011,04,20,04,37,1.80
2011,04,20,04,38,1.80
2011,04,20,04,39,1.80
2011,04,20,04,40,1.80
2011,04,20,04,41,1.80
2011,04,20,04,42,1.80
2011,04,20,04,43,1.80
2011,04,20,04,44,1.80
2011,04,20,04,45,1.80
2011,04,20,04,46,1.80
2011,04,20,04,47,1.80
2011,04,20,04,48,1.80
2011,04,20,04,49,1.80
2011,04,20,04,50,1.80
2011,04,20,04,51,1.80
2011,04,20,04,52,1.80
2011,04,20,04,53,1.80
2011,04,20,04,54,1.80
2011,04,20,04,55,1.80
2011,04,20,04,56,1.80
2011,04,20,04,57,1.80
2011,04,20,04,58,1.80
2011,04,20,04,59,1.80
2011,04,20,05,00,1.80
2011,04,20,05,01,1.80
2011,04,20,05,02,1.80
2011,04,20,05,03,1.80
2011,04,20,05,04,1.80
2011,04,20,05,05,1.80
2011,04,20,05,06,1.80
2011,04,20,05,07,1.80
2011,04,20,05,08,1.80
2011,04,20,05,09,1.80
2011,04,20,05,10,1.80
2011,04,20,05,11,1.80
2011,04,20,05,12,1.80
2011,04,20,05,13,1.80
2011,04,20,05,14,1.80
2011,04,20,05,15,1.80
2011,04,20,05,16,1.80
2011,04,20,05,17,1.80
2011,04,20,05,18,1.80
2011,04,20,05,19,1.80
2011,04,20,05,20,1.80
2011,04,20,05,21,1.80
2011,04,20,05,22,1.80
2011,04,20,05,23,1.80
2011,04,20,05,24,1.80
2011,04,20,05,25,1.80
2011,04,20,05,26,1.80
2011,04,20,05,27,1.80
2011,04,20,05,28,1.80
2011,04,20,05,29,1.80
2011,04,20,05,30,1.80
2011,04,20,05,31,1.80
2011,04,20,05,32,1.80
2011,04,20,05,33,1.80
2011,04,20,05,34,1.80
2011,04,20,05,35,1.80
2011,04,20,05,36,1.80
2011,04,20,05,37,1.80
2011,04,20,05,38,1.80
2011,04,20,05,39,1.80
2011,04,20,05,40,1.80
2011,04,20,05,41,1.80
2011,04,20,05,42,1.80
2011,04,20,05,43,1.80
2011,04,20,05,44,1.80
2011,04,20,05,45,1.80
2011,04,20,05,46,1.80
2011,04,20,05,47,1.80
2011,04,20,05,48,1.80
2011,04,20,05,49,1.80
2011,04,20,05,50,1.80
2011,04,20,05,51,1.80
2011,04,20,05,52,1.80
2011,04,20,05,53,1.80
2011,04,20,05,54,1.80
2011,04,20,05,55,1.80
2011,04,20,05,56,1.80
2011,04,20,05,57,1.80
2011,04,20,05,58,1.80
2011,04,20,05,59,1.80
2011,04,20,06,00,1.80
2011,04,20,06,01,1.80
2011,04,20,06,02,1.80
2011,04,20,06,03,1.80
2011,04,20,06,04,1.80
2011,04,20,06,05,1.80
2011,04,20,06,06,1.80
2011,04,20,06,07,1.80
2011,04,20,06,08,1.80
2011,04,20,06,09,1.80
2011,04,20,06,10,1.80
2011,04,20,06,11,1.70
2011,04,20,06,12,1.70
2011,04,20,06,13,1.70
2011,04,20,06,14,1.70
2011,04,20,06,15,1.70
2011,04,20,06,16,1.70
2011,04,20,06,17,1.70
2011,04,20,06,18,1.70
2011,04,20,06,19,1.70
2011,04,20,06,20,1.60
2011,04,20,06,21,1.60
2011,04,20,06,22,1.60
2011,04,20,06,23,1.60
2011,04,20,06,24,1.60
2011,04,20,06,25,1.60
2011,04,20,06,26,1.60
2011,04,20,06,27,1.60
2011,04,20,06,28,1.60
2011,04,20,06,29,1.60
2011,04,20,06,30,1.60
2011,04,20,06,31,1.50
2011,04,20,06,32,1.50
2011,04,20,06,33,1.50
2011,04,20,06,34,1.50
2011,04,20,06,35,1.50
2011,04,20,06,36,1.50
2011,04,20,06,37,1.50
2011,04,20,06,38,1.50
2011,04,20,06,39,1.50
2011,04,20,06,40,1.50
2011,04,20,06,41,1.50
2011,04,20,06,42,1.50
2011,04,20,06,43,1.50
2011,04,20,06,44,1.40
2011,04,20,06,45,1.40
2011,04,20,06,46,1.40
2011,04,20,06,47,1.40
2011,04,20,06,48,1.40
2011,04,20,06,49,1.40
2011,04,20,06,50,1.40
2011,04,20,06,51,1.40
2011,04,20,06,52,1.40
2011,04,20,06,53,1.40
2011,04,20,06,54,1.40
2011,04,20,06,55,1.40
2011,04,20,06,56,1.40
2011,04,20,06,57,1.40
2011,04,20,06,58,1.40
2011,04,20,06,59,1.40
2011,04,20,07,00,1.40
2011,04,20,07,01,1.40
2011,04,20,07,02,1.40
2011,04,20,07,03,1.40
2011,04,20,07,04,1.50
2011,04,20,07,05,1.50
2011,04,20,07,06,1.50
2011,04,20,07,07,1.50
2011,04,20,07,08,1.50
2011,04,20,07,09,1.50
2011,04,20,07,10,1.60
2011,04,20,07,11,1.60
2011,04,20,07,12,1.60
2011,04,20,07,13,1.60
2011,04,20,07,14,1.70
2011,04,20,07,15,1.70
2011,04,20,07,16,1.70
2011,04,20,07,17,1.70
2011,04,20,07,18,1.70
2011,04,20,07,19,1.80
2011,04,20,07,20,1.80
2011,04,20,07,21,1.80
2011,04,20,07,22,1.80
2011,04,20,07,23,1.80
2011,04,20,07,24,1.80
2011,04,20,07,25,1.80
2011,04,20,07,26,1.80
2011,04,20,07,27,1.80
2011,04,20,07,28,1.80
2011,04,20,07,29,1.80
2011,04,20,07,30,1.80
2011,04,20,07,31,1.90
2011,04,20,07,32,1.90
2011,04,20,07,33,1.90
2011,04,20,07,34,1.90
2011,04,20,07,35,2.00
2011,04,20,07,36,2.00
2011,04,20,07,37,2.00
2011,04,20,07,38,2.10
2011,04,20,07,39,2.10
2011,04,20,07,40,2.10
2011,04,20,07,41,2.20
2011,04,20,07,42,2.20
2011,04,20,07,43,2.20
2011,04,20,07,44,2.20
2011,04,20,07,45,2.20
2011,04,20,07,46,2.30
2011,04,20,07,47,2.30
2011,04,20,07,48,2.30
2011,04,20,07,49,2.40
2011,04,20,07,50,2.50
2011,04,20,07,51,2.50
2011,04,20,07,52,2.50
2011,04,20,07,53,2.60
2011,04,20,07,54,2.70
2011,04,20,07,55,2.70
2011,04,20,07,56,2.70
2011,04,20,07,57,2.70
2011,04,20,07,58,2.80
2011,04,20,07,59,2.80
2011,04,20,08,00,2.90
2011,04,20,08,01,2.90
2011,04,20,08,02,2.90
2011,04,20,08,03,3.00
2011,04,20,08,04,3.10
2011,04,20,08,05,3.10
2011,04,20,08,06,3.10
2011,04,20,08,07,3.20
2011,04,20,08,08,3.20
2011,04,20,08,09,3.30
2011,04,20,08,10,3.30
2011,04,20,08,11,3.30
2011,04,20,08,12,3.30
2011,04,20,08,13,3.40
2011,04,20,08,14,3.40
2011,04,20,08,15,3.40
2011,04,20,08,16,3.50
2011,04,20,08,17,3.50
2011,04,20,08,18,3.60
2011,04,20,08,19,3.60
2011,04,20,08,20,3.60
2011,04,20,08,21,3.70
2011,04,20,08,22,3.70
2011,04,20,08,23,3.80
2011,04,20,08,24,3.80
2011,04,20,08,25,3.80
2011,04,20,08,26,3.90
2011,04,20,08,27,3.90
2011,04,20,08,28,4.00
2011,04,20,08,29,4.00
2011,04,20,08,30,4.00
2011,04,20,08,31,4.10
2011,04,20,08,32,4.10
2011,04,20,08,33,4.20
2011,04,20,08,34,4.20
2011,04,20,08,35,4.20
2011,04,20,08,36,4.20
2011,04,20,08,37,4.30
2011,04,20,08,38,4.30
2011,04,20,08,39,4.40
2011,04,20,08,40,4.40
2011,04,20,08,41,4.50
2011,04,20,08,42,4.50
2011,04,20,08,43,4.50
2011,04,20,08,44,4.50
2011,04,20,08,45,4.50
2011,04,20,08,46,4.50
2011,04,20,08,47,4.50
2011,04,20,08,48,4.50
2011,04,20,08,49,4.50
2011,04,20,08,50,4.50
2011,04,20,08,51,4.50
2011,04,20,08,52,4.50
2011,04,20,08,53,4.60
2011,04,20,08,54,4.60
2011,04,20,08,55,4.60
2011,04,20,08,56,4.60
2011,04,20,08,57,4.60
2011,04,20,08,58,4.60
2011,04,20,08,59,4.70
2011,04,20,09,00,4.70
2011,04,20,09,01,4.70
2011,04,20,09,02,4.70
2011,04,20,09,03,4.80
2011,04,20,09,04,4.80
2011,04,20,09,05,4.90
2011,04,20,09,06,4.90
2011,04,20,09,07,5.00
2011,04,20,09,08,5.10
2011,04,20,09,09,5.10
2011,04,20,09,10,5.20
2011,04,20,09,11,5.10
2011,04,20,09,12,5.10
2011,04,20,09,13,5.10
2011,04,20,09,14,5.10
2011,04,20,09,15,5.10
2011,04,20,09,16,5.20
2011,04,20,09,17,5.20
2011,04,20,09,18,5.30
2011,04,20,09,19,5.30
2011,04,20,09,20,5.40
2011,04,20,09,21,5.50
2011,04,20,09,22,5.50
2011,04,20,09,23,5.50
2011,04,20,09,24,5.60
2011,04,20,09,25,5.60
2011,04,20,09,26,5.70
2011,04,20,09,27,5.70
2011,04,20,09,28,5.80
2011,04,20,09,29,5.80
2011,04,20,09,30,5.90
2011,04,20,09,31,6.00
2011,04,20,09,32,6.10
2011,04,20,09,33,6.10
2011,04,20,09,34,6.10
2011,04,20,09,35,6.20
2011,04,20,09,36,6.20
2011,04,20,09,37,6.30
2011,04,20,09,38,6.30
2011,04,20,09,39,6.30
2011,04,20,09,40,6.30
2011,04,20,09,41,6.30
2011,04,20,09,42,6.30
2011,04,20,09,43,6.30
2011,04,20,09,44,6.30
2011,04,20,09,45,6.40
2011,04,20,09,46,6.40
2011,04,20,09,47,6.40
2011,04,20,09,48,6.40
2011,04,20,09,49,6.40
2011,04,20,09,50,6.40
2011,04,20,09,51,6.40
2011,04,20,09,52,6.40
2011,04,20,09,53,6.40
2011,04,20,09,54,6.50
2011,04,20,09,55,6.60
2011,04,20,09,56,6.60
2011,04,20,09,57,6.70
2011,04,20,09,58,6.80
2011,04,20,09,59,6.80
2011,04,20,10,00,6.80
2011,04,20,10,01,6.90
2011,04,20,10,02,7.00
2011,04,20,10,03,7.10
2011,04,20,10,04,7.20
2011,04,20,10,05,7.30
2011,04,20,10,06,7.30
2011,04,20,10,07,7.30
2011,04,20,10,08,7.40
2011,04,20,10,09,7.40
2011,04,20,10,10,7.40
2011,04,20,10,11,7.30
2011,04,20,10,12,7.30
2011,04,20,10,13,7.30
2011,04,20,10,14,7.30
2011,04,20,10,15,7.30
2011,04,20,10,16,7.40
2011,04,20,10,17,7.50
2011,04,20,10,18,7.60
2011,04,20,10,19,7.60
2011,04,20,10,20,7.60
2011,04,20,10,21,7.60
2011,04,20,10,22,7.70
2011,04,20,10,23,7.70
2011,04,20,10,24,7.60
2011,04,20,10,25,7.60
2011,04,20,10,26,7.60
2011,04,20,10,27,7.70
2011,04,20,10,28,7.80
2011,04,20,10,29,7.80
2011,04,20,10,30,7.80
2011,04,20,10,31,7.80
2011,04,20,10,32,7.80
2011,04,20,10,33,7.80
2011,04,20,10,34,7.80
2011,04,20,10,35,7.80
2011,04,20,10,36,7.90
2011,04,20,10,37,8.00
2011,04,20,10,38,8.00
2011,04,20,10,39,8.00
2011,04,20,10,40,8.00
2011,04,20,10,41,8.00
2011,04,20,10,42,8.00
2011,04,20,10,43,8.00
2011,04,20,10,44,7.90
2011,04,20,10,45,7.90
2011,04,20,10,46,7.90
2011,04,20,10,47,8.00
2011,04,20,10,48,8.10
2011,04,20,10,49,8.20
2011,04,20,10,50,8.20
2011,04,20,10,51,8.20
2011,04,20,10,52,8.00
2011,04,20,10,53,7.90
2011,04,20,10,54,7.90
2011,04,20,10,55,7.90
2011,04,20,10,56,7.90
2011,04,20,10,57,8.00
2011,04,20,10,58,8.00
2011,04,20,10,59,8.10
2011,04,20,11,00,8.10
2011,04,20,11,01,8.10
2011,04,20,11,02,8.20
2011,04,20,11,03,8.20
2011,04,20,11,04,8.20
2011,04,20,11,05,8.20
2011,04,20,11,06,8.20
2011,04,20,11,07,8.30
2011,04,20,11,08,8.40
2011,04,20,11,09,8.50
2011,04,20,11,10,8.50
2011,04,20,11,11,8.40
2011,04,20,11,12,8.40
2011,04,20,11,13,8.40
2011,04,20,11,14,8.40
2011,04,20,11,15,8.40
2011,04,20,11,16,8.30
2011,04,20,11,17,8.30
2011,04,20,11,18,8.40
2011,04,20,11,19,8.40
2011,04,20,11,20,8.60
2011,04,20,11,21,8.60
2011,04,20,11,22,8.70
2011,04,20,11,23,8.80
2011,04,20,11,24,8.90
2011,04,20,11,25,9.00
2011,04,20,11,26,9.10
2011,04,20,11,27,9.20
2011,04,20,11,28,9.20
2011,04,20,11,29,9.20
2011,04,20,11,30,9.10
2011,04,20,11,31,9.00
2011,04,20,11,32,8.90
2011,04,20,11,33,8.80
2011,04,20,11,34,8.90
2011,04,20,11,35,8.90
2011,04,20,11,36,8.90
2011,04,20,11,37,8.90
2011,04,20,11,38,8.90
2011,04,20,11,39,8.90
2011,04,20,11,40,8.90
2011,04,20,11,41,8.90
2011,04,20,11,42,8.80
2011,04,20,11,43,8.80
2011,04,20,11,44,8.90
2011,04,20,11,45,9.10
2011,04,20,11,46,9.20
2011,04,20,11,47,9.40
2011,04,20,11,48,9.40
2011,04,20,11,49,9.40
2011,04,20,11,50,9.40
2011,04,20,11,51,9.30
2011,04,20,11,52,9.30
2011,04,20,11,53,9.30
2011,04,20,11,54,9.30
2011,04,20,11,55,9.20
2011,04,20,11,56,9.20
2011,04,20,11,57,9.20
2011,04,20,11,58,9.20
2011,04,20,11,59,9.20
2011,04,20,12,00,9.10
2011,04,20,12,01,9.00
2011,04,20,12,02,8.90
2011,04,20,12,03,8.70
2011,04,20,12,04,8.50
2011,04,20,12,05,8.40
2011,04,20,12,06,8.30
2011,04,20,12,07,8.40
2011,04,20,12,08,8.50
2011,04,20,12,09,8.40
2011,04,20,12,10,8.30
2011,04,20,12,11,8.20
2011,04,20,12,12,8.20
2011,04,20,12,13,8.20
2011,04,20,12,14,8.20
2011,04,20,12,15,8.20
2011,04,20,12,16,8.20
2011,04,20,12,17,8.20
2011,04,20,12,18,8.20
2011,04,20,12,19,8.30
2011,04,20,12,20,8.40
2011,04,20,12,21,8.40
2011,04,20,12,22,8.40
2011,04,20,12,23,8.40
2011,04,20,12,24,8.40
2011,04,20,12,25,8.50
2011,04,20,12,26,8.60
2011,04,20,12,27,8.70
2011,04,20,12,28,8.70
2011,04,20,12,29,8.80
2011,04,20,12,30,8.70
2011,04,20,12,31,8.70
2011,04,20,12,32,8.70
2011,04,20,12,33,8.70
2011,04,20,12,34,8.70
2011,04,20,12,35,8.70
2011,04,20,12,36,8.70
2011,04,20,12,37,8.70
2011,04,20,12,38,8.80
2011,04,20,12,39,8.80
2011,04,20,12,40,8.80
2011,04,20,12,41,8.80
2011,04,20,12,42,8.80
2011,04,20,12,43,8.80
2011,04,20,12,44,8.80
2011,04,20,12,45,8.80
2011,04,20,12,46,8.70
2011,04,20,12,47,8.70
2011,04,20,12,48,8.70
2011,04,20,12,49,8.70
2011,04,20,12,50,8.70
2011,04,20,12,51,8.60
2011,04,20,12,52,8.60
2011,04,20,12,53,8.60
2011,04,20,12,54,8.50
2011,04,20,12,55,8.60
2011,04,20,12,56,8.60
2011,04,20,12,57,8.50
2011,04,20,12,58,8.50
2011,04,20,12,59,8.50
2011,04,20,13,00,8.50
2011,04,20,13,01,8.40
2011,04,20,13,02,8.40
2011,04,20,13,03,8.40
2011,04,20,13,04,8.40
2011,04,20,13,05,8.40
2011,04,20,13,06,8.50
2011,04,20,13,07,8.70
2011,04,20,13,08,8.80
2011,04,20,13,09,9.00
2011,04,20,13,10,9.00
2011,04,20,13,11,8.90
2011,04,20,13,12,8.90
2011,04,20,13,13,8.90
2011,04,20,13,14,9.00
2011,04,20,13,15,9.10
2011,04,20,13,16,9.20
2011,04,20,13,17,9.20
2011,04,20,13,18,9.40
2011,04,20,13,19,9.50
2011,04,20,13,20,9.50
2011,04,20,13,21,9.40
2011,04,20,13,22,9.40
2011,04,20,13,23,9.30
2011,04,20,13,24,9.20
2011,04,20,13,25,9.20
2011,04,20,13,26,9.20
2011,04,20,13,27,9.20
2011,04,20,13,28,9.20
2011,04,20,13,29,9.20
2011,04,20,13,30,9.10
2011,04,20,13,31,9.20
2011,04,20,13,32,9.10
2011,04,20,13,33,9.10
2011,04,20,13,34,9.20
2011,04,20,13,35,9.10
2011,04,20,13,36,9.00
2011,04,20,13,37,9.00
2011,04,20,13,38,9.00
2011,04,20,13,39,9.10
2011,04,20,13,40,9.20
2011,04,20,13,41,9.30
2011,04,20,13,42,9.40
2011,04,20,13,43,9.40
2011,04,20,13,44,9.40
2011,04,20,13,45,9.30
2011,04,20,13,46,9.30
2011,04,20,13,47,9.20
2011,04,20,13,48,9.10
2011,04,20,13,49,9.00
2011,04,20,13,50,9.00
2011,04,20,13,51,8.90
2011,04,20,13,52,8.80
2011,04,20,13,53,8.70
2011,04,20,13,54,8.80
2011,04,20,13,55,8.80
2011,04,20,13,56,8.70
2011,04,20,13,57,8.70
2011,04,20,13,58,8.70
2011,04,20,13,59,8.80
2011,04,20,14,00,8.80
2011,04,20,14,01,8.80
2011,04,20,14,02,8.70
2011,04,20,14,03,8.70
2011,04,20,14,04,8.70
2011,04,20,14,05,8.70
2011,04,20,14,06,8.60
2011,04,20,14,07,8.60
2011,04,20,14,08,8.60
2011,04,20,14,09,8.50
2011,04,20,14,10,8.50
2011,04,20,14,11,8.50
2011,04,20,14,12,8.50
2011,04,20,14,13,8.50
2011,04,20,14,14,8.60
2011,04,20,14,15,8.60
2011,04,20,14,16,8.60
2011,04,20,14,17,8.70
2011,04,20,14,18,8.70
2011,04,20,14,19,8.60
2011,04,20,14,20,8.60
2011,04,20,14,21,8.60
2011,04,20,14,22,8.50
2011,04,20,14,23,8.50
2011,04,20,14,24,8.50
2011,04,20,14,25,8.60
2011,04,20,14,26,8.70
2011,04,20,14,27,8.80
2011,04,20,14,28,8.90
2011,04,20,14,29,9.00
2011,04,20,14,30,9.00
2011,04,20,14,31,9.10
2011,04,20,14,32,9.10
2011,04,20,14,33,9.20
2011,04,20,14,34,9.20
2011,04,20,14,35,9.30
2011,04,20,14,36,9.30
2011,04,20,14,37,9.40
2011,04,20,14,38,9.50
2011,04,20,14,39,9.60
2011,04,20,14,40,9.70
2011,04,20,14,41,9.80
2011,04,20,14,42,9.80
2011,04,20,14,43,9.70
2011,04,20,14,44,9.60
2011,04,20,14,45,9.60
2011,04,20,14,46,9.60
2011,04,20,14,47,9.60
2011,04,20,14,48,9.70
2011,04,20,14,49,9.70
2011,04,20,14,50,9.60
2011,04,20,14,51,9.60
2011,04,20,14,52,9.60
2011,04,20,14,53,9.50
2011,04,20,14,54,9.50
2011,04,20,14,55,9.50
2011,04,20,14,56,9.60
2011,04,20,14,57,9.80
2011,04,20,14,58,9.90
2011,04,20,14,59,10.00
2011,04,20,15,00,10.10
2011,04,20,15,01,10.10
2011,04,20,15,02,10.20
2011,04,20,15,03,10.10
2011,04,20,15,04,10.10
2011,04,20,15,05,9.90
2011,04,20,15,06,9.80
2011,04,20,15,07,9.60
2011,04,20,15,08,9.50
2011,04,20,15,09,9.40
2011,04,20,15,10,9.30
2011,04,20,15,11,9.20
2011,04,20,15,12,9.00
2011,04,20,15,13,8.90
2011,04,20,15,14,8.80
2011,04,20,15,15,8.70
2011,04,20,15,16,8.60
2011,04,20,15,17,8.50
2011,04,20,15,18,8.40
2011,04,20,15,19,8.40
2011,04,20,15,20,8.30
2011,04,20,15,21,8.30
2011,04,20,15,22,8.20
2011,04,20,15,23,8.20
2011,04,20,15,24,8.20
2011,04,20,15,25,8.20
2011,04,20,15,26,8.20
2011,04,20,15,27,8.20
2011,04,20,15,28,8.20
2011,04,20,15,29,8.20
2011,04,20,15,30,8.20
2011,04,20,15,31,8.20
2011,04,20,15,32,8.20
2011,04,20,15,33,8.20
2011,04,20,15,34,8.20
2011,04,20,15,35,8.20
2011,04,20,15,36,8.20
2011,04,20,15,37,8.10
2011,04,20,15,38,8.10
2011,04,20,15,39,8.10
2011,04,20,15,40,8.10
2011,04,20,15,41,8.20
2011,04,20,15,42,8.20
2011,04,20,15,43,8.20
2011,04,20,15,44,8.20
2011,04,20,15,45,8.30
2011,04,20,15,46,8.30
2011,04,20,15,47,8.30
2011,04,20,15,48,8.30
2011,04,20,15,49,8.30
2011,04,20,15,50,8.30
2011,04,20,15,51,8.20
2011,04,20,15,52,8.20
2011,04,20,15,53,8.20
2011,04,20,15,54,8.20
2011,04,20,15,55,8.20
2011,04,20,15,56,8.20
2011,04,20,15,57,8.20
2011,04,20,15,58,8.20
2011,04,20,15,59,8.30
2011,04,20,16,00,8.40
2011,04,20,16,01,8.40
2011,04,20,16,02,8.40
2011,04,20,16,03,8.40
2011,04,20,16,04,8.50
2011,04,20,16,05,8.50
2011,04,20,16,06,8.50
2011,04,20,16,07,8.50
2011,04,20,16,08,8.50
2011,04,20,16,09,8.50
2011,04,20,16,10,8.40
2011,04,20,16,11,8.40
2011,04,20,16,12,8.40
2011,04,20,16,13,8.50
2011,04,20,16,14,8.50
2011,04,20,16,15,8.50
2011,04,20,16,16,8.60
2011,04,20,16,17,8.70
2011,04,20,16,18,8.70
2011,04,20,16,19,8.70
2011,04,20,16,20,8.70
2011,04,20,16,21,8.80
2011,04,20,16,22,8.70
2011,04,20,16,23,8.70
2011,04,20,16,24,8.70
2011,04,20,16,25,8.70
2011,04,20,16,26,8.70
2011,04,20,16,27,8.70
2011,04,20,16,28,8.70
2011,04,20,16,29,8.70
2011,04,20,16,30,8.70
2011,04,20,16,31,8.70
2011,04,20,16,32,8.70
2011,04,20,16,33,8.70
2011,04,20,16,34,8.70
2011,04,20,16,35,8.80
2011,04,20,16,36,8.90
2011,04,20,16,37,8.90
2011,04,20,16,38,9.00
2011,04,20,16,39,9.00
2011,04,20,16,40,9.10
2011,04,20,16,41,9.10
2011,04,20,16,42,9.20
2011,04,20,16,43,9.20
2011,04,20,16,44,9.30
2011,04,20,16,45,9.40
2011,04,20,16,46,9.50
2011,04,20,16,47,9.50
2011,04,20,16,48,9.50
2011,04,20,16,49,9.60
2011,04,20,16,50,9.70
2011,04,20,16,51,9.70
2011,04,20,16,52,9.60
2011,04,20,16,53,9.60
2011,04,20,16,54,9.60
2011,04,20,16,55,9.50
2011,04,20,16,56,9.50
2011,04,20,16,57,9.40
2011,04,20,16,58,9.40
2011,04,20,16,59,9.40
2011,04,20,17,00,9.40
2011,04,20,17,01,9.40
2011,04,20,17,02,9.30
2011,04,20,17,03,9.30
2011,04,20,17,04,9.30
2011,04,20,17,05,9.20
2011,04,20,17,06,9.10
2011,04,20,17,07,9.10
2011,04,20,17,08,9.00
2011,04,20,17,09,8.90
2011,04,20,17,10,8.90
2011,04,20,17,11,8.80
2011,04,20,17,12,8.80
2011,04,20,17,13,8.70
2011,04,20,17,14,8.70
2011,04,20,17,15,8.70
2011,04,20,17,16,8.70
2011,04,20,17,17,8.70
2011,04,20,17,18,8.70
2011,04,20,17,19,8.70
2011,04,20,17,20,8.70
2011,04,20,17,21,8.60
2011,04,20,17,22,8.60
2011,04,20,17,23,8.50
2011,04,20,17,24,8.50
2011,04,20,17,25,8.50
2011,04,20,17,26,8.40
2011,04,20,17,27,8.40
2011,04,20,17,28,8.30
2011,04,20,17,29,8.30
2011,04,20,17,30,8.20
2011,04,20,17,31,8.20
2011,04,20,17,32,8.20
2011,04,20,17,33,8.20
2011,04,20,17,34,8.20
2011,04,20,17,35,8.20
2011,04,20,17,36,8.20
2011,04,20,17,37,8.20
2011,04,20,17,38,8.20
2011,04,20,17,39,8.20
2011,04,20,17,40,8.30
2011,04,20,17,41,8.30
2011,04,20,17,42,8.30
2011,04,20,17,43,8.30
2011,04,20,17,44,8.30
2011,04,20,17,45,8.20
2011,04,20,17,46,8.30
2011,04,20,17,47,8.30
2011,04,20,17,48,8.30
2011,04,20,17,49,8.20
2011,04,20,17,50,8.20
2011,04,20,17,51,8.20
2011,04,20,17,52,8.20
2011,04,20,17,53,8.20
2011,04,20,17,54,8.20
2011,04,20,17,55,8.10
2011,04,20,17,56,8.10
2011,04,20,17,57,8.10
2011,04,20,17,58,8.00
2011,04,20,17,59,8.00
2011,04,20,18,00,8.00
2011,04,20,18,01,8.00
2011,04,20,18,02,8.00
2011,04,20,18,03,7.90
2011,04,20,18,04,7.90
2011,04,20,18,05,7.90
2011,04,20,18,06,7.90